Regional Weather Roundup
Issued by NWS

Home | Current Version | Previous Version | Graphics & Text | Print | Product List | Glossary On
Versions: 1 2 3 4 5 6 7 8 9 10 11 12 13 14 15 16 17 18 19 20 21 22 23 24 25 26 27 28 29 30 31 32 33 34 35 36 37 38 39 40 41 42 43 44 45 46 47 48 49 50
000
ASUS43 KLMK 240402
RWRKY
KENTUCKY REGIONAL WEATHER ROUNDUP
NATIONAL WEATHER SERVICE LOUISVILLE KY
1200 AM EDT MON JUL 24 2017

NOTE "FAIR" INDICATES FEW OR NO CLOUDS BELOW 12,000 FEET
WITH NO SIGNIFICANT WEATHER AND/OR OBSTRUCTIONS TO VISIBILITY.

KYZ001>023-026-027-061>063-070>075-240500-
WESTERN AND SOUTH CENTRAL KENTUCKY

CITY           SKY/WX    TMP DP  RH WIND       PRES   REMARKS
PADUCAH        PTCLDY    75  71  87 SW3       29.89R
HENDERSON      CLEAR     72  71  97 CALM      29.88R
OWENSBORO      PTCLDY    75  72  90 CALM      29.88S
HOPKINSVILLE   PTCLDY    80  75  84 CALM      29.89S
BOWLING GREEN  CLEAR     77  74  90 CALM      29.90R
GLASGOW        NOT AVBL
$$

KYZ024-025-028>034-038-045-046-053-240500-
NORTH CENTRAL KENTUCKY

CITY           SKY/WX    TMP DP  RH WIND       PRES   REMARKS
LOUISVILLE/SDF PTCLDY    79  72  79 SW6       29.87R
LOUISVILLE/LOU CLEAR     78  74  87 SW3       29.87R
FORT KNOX      CLEAR     73  71  92 CALM      29.88R
$$

KYZ035>037-039>044-047>052-055>060-089>105-240500-
NORTHEAST KENTUCKY

CITY           SKY/WX    TMP DP  RH WIND       PRES   REMARKS
LEXINGTON      CLEAR     75  69  81 S5        29.90R
COVINGTON      CLEAR     72  70  93 SW6       29.84F
FRANKFORT      CLEAR     74  68  81 SW5       29.87R
$$

KYZ054-064>069-076>088-106>120-240500-
SOUTHEAST KENTUCKY

CITY           SKY/WX    TMP DP  RH WIND       PRES   REMARKS
JACKSON        CLOUDY    75  69  81 CALM      29.92S
LONDON         CLOUDY    75  69  81 CALM      29.95R
SOMERSET       NOT AVBL
MIDDLESBORO    MOCLDY    71  71  99 CALM      29.96S
MONTICELLO     CLOUDY    70  69  97 W12       29.95S
$$




USA.gov is the U.S. government's official web portal to all federal, state and local government web resources and services.